Date,TemperatureHighF,TemperatureAvgF,TemperatureLowF,DewpointHighF,DewpointAvgF,DewpointLowF,HumidityHigh,HumidityAvg,HumidityLow,PressureMaxIn,PressureMinIn,WindSpeedMaxMPH,WindSpeedAvgMPH,GustSpeedMaxMPH,PrecipitationSumIn
2013-1-1,42,39,35,42,36,27,99,91,67,30.31,30.12,2,0,0,0.69
2013-1-2,46,41,37,43,40,35,99,94,82,30.25,30.07,1,0,0,0.02
2013-1-3,45,36,26,38,33,24,98,91,71,30.47,30.22,3,0,0,0.00
2013-1-4,43,30,20,30,22,16,98,77,42,30.56,30.44,3,0,0,0.01
2013-1-5,50,34,20,36,24,19,95,71,33,30.61,30.41,3,0,0,0.01
2013-1-6,49,40,36,41,34,26,98,81,49,30.41,30.19,4,0,0,0.02
2013-1-7,54,37,25,32,26,21,96,69,28,30.56,30.35,7,0,0,0.00
2013-1-8,54,37,24,41,32,22,96,81,57,30.62,30.48,3,0,0,0.00
2013-1-9,53,47,41,48,44,37,96,88,82,30.61,30.54,2,0,0,0.00
2013-1-10,66,52,42,54,48,41,99,85,60,30.62,30.40,10,1,13,0.00
2013-1-11,62,57,53,60,56,51,98,96,88,30.40,30.20,6,0,0,0.26
2013-1-12,69,60,55,64,57,53,99,93,73,30.28,30.15,5,0,0,0.07
2013-1-13,68,62,53,58,55,52,97,79,65,30.20,30.10,5,0,0,0.27
2013-1-14,60,58,50,59,57,49,99,98,95,30.24,30.08,3,0,0,1.88
2013-1-15,58,54,49,58,54,49,99,99,97,30.21,30.04,4,0,0,3.21
2013-1-16,62,56,52,58,54,51,99,96,78,30.10,29.98,5,0,0,0.84
2013-1-17,52,45,34,51,42,26,99,90,68,30.33,30.02,5,0,17,2.05
2013-1-18,47,36,26,31,26,18,94,71,31,30.64,30.33,2,0,0,0.00
2013-1-19,51,35,23,35,26,16,98,76,25,30.63,30.38,2,0,0,0.00
2013-1-20,54,37,24,37,28,23,98,74,37,30.39,30.23,8,0,0,0.01
2013-1-21,50,34,24,34,24,16,98,70,39,30.30,30.18,6,0,0,0.00
2013-1-22,35,28,21,17,10,0,63,47,25,30.43,30.24,8,1,13,0.00
2013-1-23,44,33,25,27,19,8,81,57,45,30.50,30.27,6,0,0,0.00
2013-1-24,44,38,26,34,18,3,87,49,20,30.52,30.22,7,0,0,0.00
2013-1-25,33,28,24,33,23,9,98,81,48,30.55,30.29,6,0,0,0.17
2013-1-26,46,36,29,38,32,28,99,88,54,30.50,30.31,2,0,0,0.08
2013-1-27,54,38,24,38,30,23,98,78,45,30.64,30.50,4,0,0,0.00
2013-1-28,64,50,40,48,41,33,95,73,55,30.57,30.37,4,0,0,0.00
2013-1-29,45,42,38,44,40,37,98,97,93,30.40,30.38,2,0,0,0.00
2013-1-30,63,51,39,60,50,37,98,95,87,29.70,29.57,7,0,12,3.08
2013-1-31,39,33,28,38,26,21,96,74,53,30.23,29.69,8,1,0,0.05
2013-2-1,39,29,19,32,14,4,87,54,31,30.53,30.14,6,0,0,0.00
2013-2-2,34,25,16,28,20,10,97,84,44,30.53,30.27,2,0,0,0.00
2013-2-3,41,33,29,34,28,23,97,81,61,30.27,30.13,5,0,0,0.23
2013-2-4,48,34,23,31,25,20,93,72,46,30.33,30.15,4,0,0,0.12
2013-2-5,52,39,30,40,33,28,94,81,50,30.20,30.09,5,0,0,0.01
2013-2-6,57,40,26,38,28,20,98,68,27,30.37,30.20,6,0,0,0.00
2013-2-7,44,38,32,42,36,28,98,90,74,30.38,30.12,1,0,0,0.25
2013-2-8,51,42,32,48,37,26,99,86,52,30.30,30.06,8,0,13,0.02
2013-2-9,58,40,24,31,24,11,97,61,18,30.47,30.26,4,0,0,0.00
2013-2-10,52,42,34,47,31,19,98,67,28,30.49,30.27,12,1,14,1.04
2013-2-11,55,48,38,54,47,37,99,93,73,30.27,30.14,5,0,0,0.22
2013-2-12,53,41,31,41,36,30,99,83,42,30.27,30.03,2,0,0,0.27
2013-2-13,53,42,32,46,38,30,98,88,68,30.05,29.78,5,0,0,0.25
2013-2-14,49,36,27,33,29,26,98,77,42,30.23,30.05,5,0,0,0.00
2013-2-15,57,38,24,38,31,23,98,78,37,30.30,30.11,5,0,0,0.00
2013-2-16,37,30,21,31,23,12,91,75,47,30.20,30.02,9,0,13,0.00
2013-2-17,36,26,18,16,11,7,74,54,30,30.46,30.20,7,0,0,0.00
2013-2-18,55,34,17,27,21,14,92,61,30,30.57,30.32,7,0,0,0.00
2013-2-19,48,39,32,43,28,15,97,68,41,30.33,30.06,11,1,13,0.32
2013-2-20,48,35,24,18,12,4,67,42,17,30.32,30.23,6,0,0,0.00
2013-2-21,62,40,22,38,23,10,96,58,16,30.38,30.18,6,0,0,0.51
2013-2-22,48,42,36,44,39,32,97,91,82,30.37,30.19,10,1,0,0.53
2013-2-23,56,48,43,52,46,40,99,95,82,30.20,29.93,4,0,0,0.32
2013-2-24,58,43,33,41,32,22,99,70,29,30.18,29.99,6,0,0,0.01
2013-2-25,48,34,29,34,28,25,96,82,44,30.24,30.15,6,0,0,0.00
2013-3-2,40,33,25,31,25,19,80,72,61,30.12,30.02,6,0,0,0.03
2013-3-3,38,28,20,20,17,14,82,65,43,30.22,30.10,6,0,0,0.00
2013-3-4,54,35,17,32,20,12,90,60,21,30.35,30.21,4,0,0,0.00
2013-3-5,47,38,32,47,35,26,99,90,69,30.25,29.81,6,0,13,0.82
2013-3-6,33,29,24,29,26,22,95,87,76,30.34,29.89,10,0,17,0.00
2013-3-7,52,35,22,34,27,21,97,75,43,30.46,30.32,4,0,0,0.01
2013-3-8,60,39,22,32,23,14,97,62,19,30.49,30.36,3,0,0,0.00
2013-3-9,68,45,24,31,26,21,90,55,19,30.49,30.30,6,0,0,0.00
2013-3-10,66,49,34,38,31,29,85,55,25,30.39,30.23,9,1,16,0.00
2013-3-12,57,46,35,35,30,27,78,54,37,30.18,30.02,5,0,0,0.19
2013-3-13,47,36,28,32,25,18,90,65,38,30.36,30.17,9,1,13,0.00
2013-3-14,51,35,21,20,15,10,80,48,20,30.46,30.34,5,0,0,0.00
2013-3-15,68,48,26,41,30,14,83,52,29,30.39,30.08,6,0,0,0.00
2013-3-16,75,64,52,47,44,40,67,48,32,30.08,29.86,9,0,14,0.00
2013-3-17,74,60,49,49,44,40,83,58,30,30.04,29.93,3,0,0,0.00
2013-3-18,56,50,44,49,46,43,98,87,69,30.05,29.92,7,0,0,0.69
2013-3-19,57,47,36,44,30,13,99,59,25,30.21,29.97,10,1,0,0.00
2013-3-20,53,40,28,31,18,8,85,45,18,30.23,29.99,8,1,0,0.00
2013-3-21,40,31,22,27,13,8,81,47,29,30.12,29.97,9,1,13,0.00
2013-3-22,47,34,20,30,20,12,85,58,33,30.24,30.12,3,0,0,0.00
2013-3-23,59,45,37,48,39,29,96,80,64,30.20,29.93,8,0,13,0.06
2013-3-24,55,46,40,50,43,38,98,90,74,30.02,29.57,9,1,13,1.17
2013-3-25,40,33,28,38,26,22,94,76,57,30.10,29.65,10,1,0,0.00
2013-3-26,42,32,26,32,26,23,95,80,56,30.39,30.10,7,0,13,0.01
2013-3-27,48,37,26,25,22,18,80,57,33,30.44,30.35,7,0,0,0.00
2013-3-28,56,38,22,28,20,11,95,55,17,30.48,30.36,10,0,12,0.00
2013-3-29,53,37,24,39,28,21,97,75,31,30.52,30.42,4,0,0,0.13
2013-3-30,64,49,38,47,40,36,98,75,37,30.42,30.16,6,0,0,0.13
2013-3-31,63,52,46,54,50,43,98,92,68,30.18,29.96,2,0,0,0.62
2013-4-1,63,53,44,51,44,34,98,74,43,30.11,29.97,6,0,0,0.03
2013-4-2,62,48,34,35,25,12,83,46,16,30.26,30.11,5,0,0,0.00
2013-4-3,66,51,38,30,25,17,64,39,17,30.33,30.22,8,0,12,0.00
2013-4-4,49,39,35,38,34,25,98,84,39,30.31,30.09,6,0,0,0.82
2013-4-5,63,48,38,47,38,28,99,73,27,30.23,30.09,8,0,15,0.00
2013-4-6,70,50,31,39,33,29,97,59,23,30.36,30.22,13,1,13,0.00
2013-4-7,72,56,38,44,39,34,84,56,30,30.32,30.18,5,0,0,0.00
2013-4-8,78,61,45,51,46,41,89,62,34,30.25,30.15,5,0,0,0.00
2013-4-9,84,65,46,55,50,44,96,64,31,30.30,30.16,6,0,0,0.00
2013-4-10,87,68,49,56,52,41,95,62,21,30.22,30.02,5,1,0,0.00
2013-4-11,81,66,56,61,55,49,97,70,35,30.03,29.74,9,1,0,1.98
2013-4-12,71,60,46,60,49,33,98,71,37,30.00,29.69,9,0,13,1.15
2013-4-13,72,55,37,42,34,25,94,52,18,30.17,29.99,10,0,0,0.00
2013-4-14,70,53,37,49,40,34,93,65,29,30.22,30.08,12,1,14,0.00
2013-4-15,77,61,50,58,53,49,98,78,44,30.27,30.06,9,1,13,0.03
2013-4-16,82,67,56,60,56,52,90,70,36,30.34,30.21,6,0,0,0.00
2013-4-17,85,66,59,62,58,55,90,75,41,30.31,30.18,8,0,15,0.03
2013-4-18,75,66,59,61,57,52,90,72,48,30.18,29.98,10,1,13,0.00
2013-4-19,67,59,42,62,55,36,97,87,74,30.06,29.77,9,1,0,1.31
2013-4-20,62,48,32,37,30,23,87,55,25,30.41,30.06,6,0,0,0.00
2013-4-21,64,48,31,38,33,28,96,60,28,30.52,30.40,11,1,0,0.00
2013-4-22,68,52,36,41,37,34,93,60,31,30.50,30.26,6,0,0,0.00
2013-4-23,74,56,36,45,38,32,87,56,31,30.36,30.16,7,0,0,0.00
2013-4-24,75,58,46,59,50,43,94,77,45,30.24,30.10,6,0,0,0.06
2013-4-25,70,55,40,50,34,11,96,55,12,30.44,30.19,5,0,0,0.00
2013-4-26,72,54,31,40,33,29,93,52,22,30.54,30.38,6,0,0,0.00
2013-4-27,58,51,48,52,48,38,98,89,47,30.48,30.33,3,0,0,1.34
2013-4-28,53,51,49,53,50,48,99,97,91,30.35,30.10,6,0,0,2.54
2013-4-29,72,60,50,58,52,46,99,78,41,30.17,30.00,4,0,0,0.03
2013-4-30,78,63,48,56,52,46,98,72,36,30.22,30.06,8,0,0,0.00
2013-5-1,71,61,53,55,52,49,94,72,48,30.31,30.22,8,1,0,0.00
2013-5-2,68,59,55,56,52,50,90,79,62,30.33,30.26,10,1,0,0.00
2013-5-3,65,57,52,54,51,48,95,80,55,30.28,30.13,12,1,15,0.01
2013-5-4,54,50,46,50,47,42,97,89,78,30.14,30.00,7,1,13,0.50
2013-5-5,53,50,47,52,49,47,98,97,92,30.05,29.89,7,1,0,1.04
2013-5-6,64,53,44,51,46,41,99,79,48,30.02,29.86,9,0,0,0.22
2013-5-7,69,52,39,52,44,38,98,79,41,30.08,29.98,5,0,0,0.00
2013-5-8,67,56,48,58,52,47,98,86,65,30.18,30.05,4,0,0,0.00
2013-5-9,77,63,51,61,52,43,97,72,33,30.24,30.13,4,0,0,0.00
2013-5-10,76,60,48,61,53,47,97,80,49,30.22,30.08,4,0,0,0.00
2013-5-18,69,65,62,64,62,61,97,90,82,30.17,30.12,3,0,0,0.39
2013-5-19,76,66,60,69,63,59,98,90,73,30.19,30.07,1,0,0,0.11
2013-5-20,82,67,56,67,61,56,98,82,48,30.22,30.09,6,0,0,0.00
2013-5-21,85,68,58,69,61,53,98,83,41,30.15,30.02,8,0,0,0.01
2013-5-22,81,67,57,69,62,56,98,86,52,30.11,29.94,3,0,0,0.23
2013-5-23,76,66,59,66,59,53,99,80,46,30.04,29.96,7,0,0,0.27
2013-5-24,67,61,47,54,45,34,89,58,32,30.33,30.02,7,0,0,0.00
2013-5-25,74,56,37,48,39,27,97,59,25,30.45,30.30,3,0,0,0.00
2013-5-26,71,57,45,53,46,39,91,67,39,30.42,30.29,5,0,0,0.00
2013-5-27,80,64,46,60,53,45,96,71,45,30.39,30.22,3,0,0,0.00
2013-5-28,81,68,55,66,58,54,95,73,42,30.31,30.21,6,0,0,0.00
2013-5-29,83,69,57,66,58,52,96,71,40,30.31,30.20,3,0,0,0.00
2013-5-30,81,67,54,68,58,53,97,74,47,30.36,30.22,4,0,0,0.00
2013-5-31,79,64,58,64,59,56,95,84,50,30.30,30.25,3,0,0,0.00
2013-6-6,77,70,60,70,66,60,98,88,70,29.97,29.84,2,0,0,0.07
2013-6-7,79,69,62,70,64,61,98,88,59,29.93,29.76,6,0,0,0.09
2013-6-8,78,68,61,67,62,59,98,83,54,30.18,29.92,2,0,0,0.02
2013-6-9,80,68,60,70,64,59,98,89,62,30.23,30.09,3,0,0,0.81
2013-6-10,74,67,63,70,64,60,98,89,65,30.11,30.00,3,0,0,1.01
2013-6-11,80,70,61,71,63,59,99,80,50,30.12,30.04,6,0,0,0.15
2013-6-12,86,72,59,74,66,58,98,83,55,30.16,30.04,3,0,0,0.00
2013-6-13,86,70,62,73,66,61,98,88,54,30.06,29.82,4,0,0,1.17
2013-6-14,78,67,55,64,57,51,99,75,43,30.16,29.91,4,0,0,0.00
2013-6-15,80,66,50,63,57,49,97,75,49,30.27,30.14,3,0,0,0.00
2013-6-16,83,70,57,68,62,56,97,77,48,30.25,30.09,3,0,0,0.00
2013-6-17,80,69,66,70,66,64,95,88,68,30.13,30.08,2,0,0,0.00
2013-6-18,68,66,64,67,65,63,98,97,94,30.02,29.93,0,0,0,0.44
2013-6-19,78,68,58,69,63,58,99,84,55,30.20,30.02,2,0,0,0.00
2013-6-20,82,68,56,69,62,55,98,84,57,30.32,30.19,8,0,0,0.00
2013-6-21,79,69,61,68,63,60,98,84,57,30.35,30.25,3,0,0,0.00
2013-6-22,81,68,56,66,60,56,98,79,47,30.35,30.19,3,0,0,0.00
2013-6-23,83,68,56,70,63,56,97,85,53,30.32,30.19,3,0,0,0.00
2013-6-24,82,72,63,71,66,62,98,82,59,30.31,30.16,4,0,0,0.00
2013-6-25,83,71,63,71,66,62,98,85,58,30.25,30.10,4,0,0,0.00
2013-6-26,83,71,63,73,67,62,98,89,65,30.15,30.00,3,0,0,0.40
2013-6-27,76,68,64,70,67,64,98,95,80,30.06,29.86,5,0,0,0.68
2013-6-28,84,72,66,74,68,65,98,88,58,29.92,29.72,5,0,0,0.08
2013-6-29,82,70,61,70,62,55,98,79,48,29.81,29.73,3,0,0,0.00
2013-6-30,84,68,55,69,62,54,98,83,48,29.90,29.80,2,0,0,0.00
2013-7-1,81,69,62,70,65,62,98,87,58,30.03,29.87,6,0,0,0.32
2013-7-2,79,70,63,70,65,62,99,85,60,30.19,30.02,4,0,0,0.56
2013-7-3,71,66,62,70,65,61,99,97,92,30.30,30.17,1,0,0,4.75
2013-7-4,73,65,61,71,65,61,99,98,88,30.31,30.23,4,0,0,1.73
2013-7-5,76,69,64,69,66,64,99,91,73,30.32,30.23,4,0,0,0.46
2013-7-6,77,70,64,71,67,64,99,92,73,30.28,30.17,6,0,0,0.13
2013-7-7,77,70,66,73,68,66,99,93,77,30.25,30.16,2,0,0,0.04
2013-7-8,84,73,66,73,68,65,99,87,59,30.27,30.16,0,0,0,0.01
2013-7-9,86,73,68,75,70,67,98,89,63,30.25,30.14,3,0,0,0.01
2013-7-10,85,74,68,76,70,68,99,89,63,30.20,30.00,5,0,0,0.29
2013-7-11,79,71,66,73,69,66,99,92,76,30.05,29.94,2,0,0,0.00
2013-7-12,85,70,62,73,66,62,98,89,56,30.07,29.95,6,0,0,0.07
2013-7-13,75,68,62,69,65,61,98,90,75,30.18,30.06,5,0,0,0.00
2013-7-14,73,68,65,71,67,64,99,95,88,30.35,30.17,4,0,0,0.26
2013-7-15,79,72,64,72,67,64,98,87,68,30.40,30.32,4,0,0,0.00
2013-7-16,86,73,64,74,68,63,99,85,57,30.43,30.30,2,0,0,0.03
2013-7-17,85,71,65,76,68,64,99,93,67,30.39,30.24,3,0,0,0.35
2013-7-18,83,72,64,76,69,64,99,91,70,30.33,30.16,1,0,0,0.01
2013-7-19,83,73,66,74,69,65,98,87,61,30.23,30.06,5,0,0,0.00
2013-7-20,84,72,67,74,69,66,99,91,64,30.13,30.01,3,0,0,1.26
2013-7-21,83,72,67,74,69,66,98,92,67,30.11,30.00,3,0,0,0.25
2013-7-22,80,71,66,72,68,65,99,90,69,30.09,29.91,2,0,0,0.83
2013-7-23,81,71,64,73,68,63,99,89,65,30.00,29.88,3,0,0,0.02
2013-7-24,85,72,64,74,68,64,99,87,62,29.96,29.86,3,0,0,0.32
2013-7-25,80,70,62,72,65,62,98,85,55,30.12,29.95,3,0,0,0.00
2013-7-26,81,68,59,70,64,58,98,87,59,30.19,30.09,2,0,0,0.00
2013-7-27,77,70,65,71,67,64,99,91,72,30.11,29.97,1,0,0,0.50
2013-7-28,80,70,62,69,65,61,98,86,63,30.14,30.00,3,0,0,0.00
2013-7-29,80,67,58,68,60,52,99,82,44,30.30,30.13,2,0,0,0.00
2013-7-30,81,68,54,69,61,53,98,82,52,30.35,30.22,3,0,0,0.00
2013-7-31,74,69,66,71,67,65,98,94,81,30.26,30.05,1,0,0,0.01
2013-8-1,79,71,64,73,68,63,99,89,68,30.08,29.98,2,0,0,0.06
2013-8-2,81,70,60,71,65,60,99,86,62,30.13,30.05,2,0,0,0.00
2013-8-3,81,71,65,71,67,64,98,87,61,30.13,30.06,2,0,0,0.00
2013-8-4,82,70,63,72,65,60,99,84,61,30.14,30.05,5,0,0,0.00
2013-8-5,82,69,58,70,63,58,97,83,57,30.17,30.06,1,0,0,0.00
2013-8-6,82,71,63,72,66,61,98,86,61,30.12,30.02,4,0,0,1.45
2013-8-7,77,69,66,74,68,65,99,96,86,30.14,30.08,2,0,0,1.33
2013-8-8,80,72,67,74,69,66,99,93,78,30.14,30.08,3,0,0,0.01
2013-8-9,82,73,66,75,70,66,99,91,70,30.18,30.09,3,0,0,0.00
2013-8-10,82,72,68,75,71,68,99,94,78,30.21,30.14,4,0,0,0.11
2013-8-11,82,72,67,74,69,66,98,91,72,30.25,30.14,2,0,0,0.31
2013-8-12,83,72,66,77,70,66,99,92,70,30.21,30.06,2,0,0,0.01
2013-8-13,78,70,66,73,68,66,99,94,75,30.09,29.93,3,0,0,0.41
2013-8-14,75,68,64,69,64,60,99,88,61,30.14,30.00,2,0,0,0.00
2013-8-15,71,64,57,63,60,56,98,85,68,30.21,30.12,5,0,0,0.00
2013-8-16,69,62,56,62,58,55,98,87,72,30.24,30.15,4,0,0,0.00
2013-8-17,70,63,57,64,60,56,98,91,65,30.26,30.19,5,0,0,0.03
2013-8-18,76,66,62,70,65,61,99,95,78,30.31,30.21,3,0,0,0.20
2013-8-19,73,67,63,70,66,62,99,97,89,30.29,30.16,1,0,0,1.30
2013-8-20,76,69,64,71,67,64,99,95,77,30.29,30.20,3,0,0,0.52
2013-8-21,73,68,65,71,67,64,99,97,87,30.33,30.23,3,0,0,0.05
2013-8-22,80,70,64,73,67,63,99,90,69,30.29,30.12,3,0,0,0.00
2013-8-23,80,70,64,72,66,63,99,90,64,30.19,30.06,4,0,0,0.00
2013-8-24,80,69,61,71,64,59,98,85,65,30.38,30.17,5,0,0,0.00
2013-8-25,76,65,54,65,59,53,98,83,58,30.49,30.35,3,0,0,0.00
2013-8-26,76,65,54,67,60,54,99,85,56,30.44,30.24,4,0,0,0.00
2013-8-27,79,66,56,70,62,55,99,89,64,30.29,30.14,2,0,0,0.00
2013-8-28,82,70,62,74,66,61,98,89,69,30.19,30.05,2,0,0,0.00
2013-8-29,82,72,64,75,69,63,99,91,72,30.10,30.01,3,0,0,0.43
2013-8-30,82,72,65,76,69,64,99,89,68,30.12,29.99,3,0,0,0.00
2013-8-31,81,71,66,74,68,65,99,91,71,30.06,29.95,3,0,0,0.00
2013-9-1,81,71,65,75,68,64,99,93,75,30.02,29.91,2,0,0,0.17
2013-9-2,79,72,65,73,69,65,99,91,75,30.04,29.91,2,0,0,0.00
2013-9-3,77,69,63,70,66,62,99,91,67,30.11,29.95,6,0,0,0.77
2013-9-4,78,68,60,69,64,60,99,89,64,30.23,30.10,2,0,0,0.00
2013-9-5,78,68,60,70,64,59,99,90,58,30.25,30.17,1,0,0,0.01
2013-9-6,76,66,54,67,61,53,98,85,58,30.29,30.16,2,0,0,0.00
2013-9-7,78,68,59,69,64,58,99,88,66,30.23,30.09,2,0,0,0.00
2013-9-8,78,67,59,70,64,59,99,91,68,30.14,30.05,1,0,0,0.00
2013-9-9,80,69,59,71,65,59,99,88,63,30.25,30.13,5,0,0,0.00
2013-9-10,81,69,62,71,66,61,99,90,66,30.35,30.24,3,0,0,0.00
2013-9-11,80,69,60,72,66,60,99,91,71,30.36,30.20,2,0,0,0.01
2013-9-12,76,68,63,71,66,63,99,95,80,30.22,30.01,2,0,0,0.05
2013-9-13,72,65,53,68,60,52,99,87,62,30.03,29.92,3,0,0,0.02
2013-9-14,71,59,50,61,54,49,99,85,57,30.24,30.03,3,0,0,0.00
2013-9-15,73,61,49,63,56,49,99,87,62,30.33,30.22,4,0,0,0.00
2013-9-16,75,64,55,67,60,54,99,89,61,30.30,30.18,4,0,0,0.00
2013-9-17,69,64,61,62,59,56,98,87,69,30.35,30.25,5,0,0,0.00
2013-9-18,69,62,58,62,58,54,98,86,69,30.36,30.25,2,0,0,0.00
2013-9-19,75,65,58,68,62,58,98,90,72,30.31,30.18,3,0,0,0.00
2013-9-20,63,61,60,63,61,60,99,99,97,30.19,30.18,1,0,0,0.00
2013-9-23,72,66,60,64,60,56,95,82,65,30.15,30.07,3,0,0,0.00
2013-9-24,73,63,53,66,59,53,98,89,70,30.18,30.01,2,0,0,0.00
2013-9-25,63,61,59,63,60,58,99,98,92,30.03,29.93,2,0,0,2.57
2013-9-26,71,62,56,64,59,55,99,92,68,30.16,29.98,2,0,0,0.00
2013-9-27,71,60,52,61,56,51,99,88,57,30.28,30.16,2,0,0,0.00
2013-9-28,70,59,50,60,55,50,99,87,64,30.36,30.22,4,0,0,0.00
2013-9-29,69,60,52,60,55,50,96,85,62,30.28,30.12,4,0,0,0.00
2013-9-30,70,60,52,62,57,51,98,89,70,30.21,30.10,3,0,0,0.00
2013-10-1,71,61,52,61,57,52,99,88,60,30.30,30.16,3,0,0,0.00
2013-10-2,74,62,54,65,59,54,99,90,63,30.31,30.18,2,0,0,0.00
2013-10-3,74,64,57,65,60,56,98,89,63,30.27,30.16,2,0,0,0.00
2013-10-4,75,63,55,67,60,54,99,90,65,30.31,30.19,2,0,0,0.00
2013-10-5,77,65,56,67,61,56,99,88,63,30.28,30.13,4,0,0,0.00
2013-10-6,74,64,55,66,60,55,99,88,64,30.17,29.98,7,0,0,0.09
2013-10-7,68,61,49,63,58,49,99,92,75,30.13,29.90,3,0,0,1.73
2013-10-8,69,55,47,59,51,46,99,86,64,30.31,30.13,4,0,0,0.00
2013-10-9,71,57,45,61,52,45,98,86,64,30.33,30.20,4,0,0,0.00
2013-10-10,68,58,51,58,54,50,99,88,65,30.25,30.13,3,0,0,0.00
2013-10-11,70,56,48,58,52,48,99,89,58,30.21,30.09,2,0,0,0.00
2013-10-12,71,58,49,62,55,49,99,90,67,30.25,30.15,3,0,0,0.00
2013-10-13,69,61,55,63,58,54,98,92,76,30.31,30.24,1,0,0,0.00
2013-10-14,70,62,56,62,58,56,99,90,72,30.34,30.22,2,0,0,0.00
2013-10-15,70,60,52,60,56,52,99,87,62,30.28,30.12,6,0,0,0.00
2013-10-16,67,58,52,59,55,51,98,90,72,30.18,30.06,3,0,0,0.00
2013-10-17,65,60,54,64,59,54,99,98,95,30.10,29.96,1,0,0,0.20
2013-10-18,66,57,50,56,53,47,99,86,50,30.14,30.01,3,0,0,0.00
2013-10-19,61,53,46,55,50,44,99,90,68,30.09,29.99,3,0,0,0.00
2013-10-20,62,50,40,47,43,36,99,80,40,30.23,30.08,3,0,0,0.00
2013-10-21,64,50,36,52,45,36,99,85,53,30.30,30.14,3,0,0,0.00
2013-10-22,64,55,49,54,50,47,99,85,57,30.18,29.94,3,0,0,0.00
2013-10-23,55,45,34,47,38,30,98,78,55,30.19,29.89,7,0,12,0.00
2013-10-24,53,40,29,40,34,28,97,80,53,30.34,30.19,6,0,0,0.00
2013-10-25,48,39,28,34,28,22,91,67,38,30.52,30.34,4,0,0,0.00
2013-10-26,55,39,24,39,29,23,97,73,36,30.51,30.29,3,0,0,0.00
2013-10-27,64,53,44,52,46,37,91,77,60,30.30,30.20,5,0,0,0.00
2013-10-28,62,54,48,55,50,47,98,89,70,30.39,30.24,3,0,0,0.07
2013-10-29,66,56,51,54,50,47,98,82,52,30.47,30.35,5,0,0,0.00
2013-10-30,70,58,50,58,52,47,95,81,61,30.43,30.27,3,0,0,0.00
2013-10-31,66,61,55,60,55,52,95,83,68,30.30,29.88,8,1,0,0.00
2013-11-1,70,62,50,60,51,31,98,72,24,29.91,29.75,7,0,0,0.23
2013-11-2,60,48,38,48,41,36,99,79,48,30.18,29.87,6,0,0,0.00
2013-11-3,57,46,34,41,36,27,98,70,33,30.47,30.16,4,0,0,0.00
2013-11-4,57,44,30,38,34,29,98,71,41,30.63,30.47,6,1,0,0.00
2013-11-5,63,44,34,39,34,29,93,69,30,30.66,30.49,7,0,0,0.00
2013-11-6,64,54,45,54,48,37,96,79,67,30.54,30.24,11,0,0,0.00
2013-11-7,61,51,37,57,43,24,98,77,37,30.29,30.13,10,0,0,0.13
2013-11-8,54,40,28,32,23,10,87,56,19,30.48,30.29,3,0,0,0.00
2013-11-9,56,40,25,34,29,24,96,67,34,30.53,30.40,2,0,0,0.00
2013-11-10,64,46,31,38,32,27,96,63,27,30.46,30.33,4,0,0,0.00
2013-11-11,62,44,28,36,30,24,96,64,25,30.49,30.30,2,0,0,0.00
2013-11-12,53,38,24,38,28,12,95,70,52,30.60,30.28,8,0,12,0.00
2013-11-13,46,30,15,20,14,8,90,55,22,30.74,30.59,4,0,0,0.00
2013-11-14,55,35,18,24,18,12,94,58,18,30.69,30.48,2,0,0,0.00
2013-11-15,43,36,26,43,32,21,98,86,57,30.53,30.37,2,0,0,0.00
2013-11-16,64,52,43,56,49,43,99,91,71,30.41,30.29,3,0,0,0.00
2013-11-17,64,58,54,58,56,52,99,92,77,30.31,30.00,6,0,0,0.00
2013-11-18,63,55,43,58,45,30,99,72,39,30.15,29.95,10,0,20,0.00
2013-11-19,56,44,32,32,26,12,85,52,19,30.34,30.14,6,0,0,0.00
2013-11-20,52,43,31,31,27,24,78,54,34,30.55,30.33,11,1,0,0.00
2013-11-21,58,50,42,53,44,30,95,80,61,30.57,30.46,5,0,0,0.00
2013-11-22,66,57,52,58,55,51,98,92,75,30.48,30.24,2,0,0,0.00
2013-11-23,56,48,32,55,40,11,99,76,31,30.35,30.20,5,0,0,0.00
2013-11-24,40,30,20,23,11,-2,76,50,17,30.65,30.34,5,0,0,0.00
2013-11-25,47,34,21,37,19,9,90,58,21,30.67,30.40,4,0,0,0.00
2013-11-26,46,43,38,46,42,36,99,97,90,30.41,29.88,5,0,0,0.00
2013-12-11,46,38,29,29,19,8,89,50,24,30.63,30.51,2,0,0,0.00
2013-12-12,42,31,24,26,20,8,89,66,25,30.58,30.51,3,0,0,0.00
2013-12-21,65,61,57,62,59,54,98,92,86,30.18,30.02,7,1,0,0.00
2013-12-22,67,58,53,62,56,52,99,92,70,30.16,29.99,11,1,15,0.00
2013-12-23,53,47,33,52,45,32,99,94,81,30.34,30.11,4,0,0,0.00
2013-12-24,36,30,21,32,25,17,98,81,58,30.58,30.33,4,0,0,0.00
2013-12-25,42,27,16,27,20,15,97,77,40,30.67,30.51,5,0,0,0.00
2013-12-26,46,30,20,29,23,18,97,78,42,30.58,30.45,2,0,0,0.00
2013-12-27,49,32,21,31,25,19,97,78,37,30.67,30.55,3,0,0,0.00
2013-12-28,38,31,22,38,29,21,98,93,74,30.62,30.22,2,0,0,0.00
2013-12-29,52,44,34,48,42,33,99,93,75,30.22,29.98,6,0,0,0.00
2013-12-30,47,40,35,40,36,34,98,88,69,30.29,30.14,2,0,0,0.00
2013-12-31,43,33,26,34,26,20,97,78,48,30.55,30.27,3,0,0,0.00
2014-1-1,46,33,24,32,26,23,97,79,42,30.56,30.32,2,0,0,0.00
2014-1-2,43,33,20,42,31,15,98,91,78,30.33,29.86,15,0,15,0.00